Погода в Суемцах

Украина / Житомирская область     50°24′20″N   27°34′07″E
темп.,
°C
ветер,
м/с
пор.,
м/с
влажн.,
%
обл.,
%
осадки,
мм/ч
давл.,
гПа
погр.,
м
15 мая, сб
сб1500:00+11юз3894100 0.2 1006195
03:00+11юз3794100 0.3 1007199
06:00+11юз3694100 0.2 1007188
09:00+13юз468598 0.2 1008504
12:00+14зюз4581100 0.2 1009832
15:00+15з4579100 0.4 1010796
18:00+14з3586100 0.1 1010484
21:00+12юз22916 0.1 101011
16 мая, вс
вс1600:00+10юз22935 0.0 101125
03:00+9ююз22925 0.0 101219
06:00+9ююв22925 0.0 101219
09:00+15ююв457742 0.0 1012376
12:00+20ююв576188 0.0 10111200
15:00+21ююв6861100 1.3 10091584
18:00+19ююв5974100 1.7 1008548
21:00+15юв41186100 3.4 1008214
17 мая, пн
пн1700:00+13юв4990100 0.2 1007143
03:00+12ю3694100 0.4 1008149
06:00+11зсз1297100 0.1 100823
09:00+15сз3384100 0.1 1007350
12:00+18сз337091 0.1 1006771
15:00+18сз336968 1.2 1005934
18:00+18ссз2372100 1.6 1004737
21:00+14сз228825 2.1 100418
18 мая, вт
вт1800:00+12з23925 0.0 100427
03:00+11з339313 0.0 100338
06:00+10зсз51097100 0.0 1004316
09:00+11зсз61196100 1.9 1005614
12:00+11зсз4995100 4.9 1007553
15:00+15зсз797796 5.3 10071172
18:00+16зсз68725 0.3 10071314
21:00+11з488610 0.4 1009153
19 мая, ср
ср1900:00+9з379394 0.0 1010131
03:00+8з379592 0.0 1011133
06:00+7з389687 0.0 1011179
09:00+12зсз4580100 0.0 1012483
12:00+15зсз456564 0.4 10121376
15:00+16зсз456087 1.4 10121504
18:00+16зсз335912 0.3 10111269
21:00+11сз33795 0.3 101226